Norwegian Crown — C6II4 — position and weather

sailwx.info

Track history (hours):
 
Tides and Currents Weather Stations Pressure Air Temp Water Temp Dewpoint Dewpoint Depression Visibility Wind Speed Wind Dir Waves Ship Positions

Norwegian Crown

Operator: Norwegian Cruise Line

Last reported at 2019-Nov-11 21:28 UTC. Time now 2019-Nov-11 22:40 UTC.
Position N 51°20' E 003°12'.

Type: Ship. MMSI: 308785000.

Date/timePositionNaut miles runAvg speedWind from/ knotsBaromVisibWave heightAir tempDewpointWater temp
2019-Nov-11 21:28N 51°20' E 003°12'0 0.0
2019-Nov-11 20:58N 51°20' E 003°12'0 0.0
2019-Nov-11 18:28N 51°20' E 003°12'0 0.0
2019-Nov-11 17:28N 51°20' E 003°12'0 0.0
2019-Nov-11 16:58N 51°20' E 003°12'0 0.0
2019-Nov-11 16:28N 51°20' E 003°12'0 0.0
2019-Nov-11 14:58N 51°20' E 003°12'0 0.0
2019-Nov-11 12:57N 51°20' E 003°12'0 0.0
2019-Nov-11 11:59N 51°20' E 003°12'0 0.0
2019-Nov-11 10:29N 51°20' E 003°12'0 0.0
2019-Nov-11 08:59N 51°20' E 003°12'0 0.0
2019-Nov-11 05:59N 51°20' E 003°12'0 0.0
2019-Nov-11 05:26N 51°20' E 003°12'4 2.1
2019-Nov-11 03:30N 51°24' E 003°13'1514.8
2019-Nov-11 02:30N 51°26' E 003°37'4 7.4
2019-Nov-11 02:00N 51°25' E 003°42'9 9.1
2019-Nov-11 01:01N 51°23' E 003°57'4 7.7
2019-Nov-11 00:30N 51°24' E 004°02'8 8.2
2019-Nov-10 23:30N 51°21' E 004°14'7 7.3
2019-Nov-10 22:30N 51°15' E 004°20'3 1.8
2019-Nov-10 20:56N 51°13' E 004°24'0 0.0
2019-Nov-10 18:26N 51°13' E 004°24'0 0.0
2019-Nov-10 15:56N 51°13' E 004°24'0 0.0
2019-Nov-10 08:56N 51°13' E 004°24'0 0.0
2019-Nov-10 05:56N 51°13' E 004°24'0 0.0
2019-Nov-10 03:56N 51°13' E 004°24'0 0.0
2019-Nov-10 00:56N 51°13' E 004°24'0 0.0
2019-Nov-09 23:26N 51°13' E 004°24'0 0.0
2019-Nov-09 22:56N 51°13' E 004°24'0 0.0
2019-Nov-09 16:26N 51°13' E 004°24'0 0.0
2019-Nov-09 15:26N 51°13' E 004°24'27 5.5
2019-Nov-09 10:30N 51°23' E 003°43'5 9.7
2019-Nov-09 10:00N 51°26' E 003°36'5913.1
2019-Nov-09 05:31N 51°13' E 002°04'2713.7
2019-Nov-09 03:31N 50°56' E 001°30'714.1
2019-Nov-09 03:00N 50°50' E 001°25'7014.1
2019-Nov-08 22:00N 50°15' W 000°11'1613.4
2019-Nov-08 20:51N 50°23' W 000°32'1016.1
2019-Nov-08 20:15N 50°31' W 000°41'3412.4
2019-Nov-08 17:30N 50°52' W 001°23'1 1.0
2019-Nov-08 16:28N 50°53' W 001°24'0 0.0
2019-Nov-08 10:58N 50°53' W 001°24'0 0.0
2019-Nov-08 09:25N 50°53' W 001°24'0 0.0
2019-Nov-08 08:58N 50°53' W 001°24'0 0.0
2019-Nov-08 08:22N 50°53' W 001°24'0 0.0
2019-Nov-08 06:55N 50°53' W 001°24'50 6.7
2019-Nov-07 23:30N 50°04' W 001°39'713.7
2019-Nov-07 23:00N 50°02' W 001°49'2013.7
2019-Nov-07 21:31N 49°57' W 002°20'12016.2
2019-Nov-07 14:09N 49°00' W 005°02'64014.7
2019-Nov-05 18:30N 38°55' W 009°52'612.3
2019-Nov-05 18:00N 38°49' W 009°52'612.0
2019-Nov-05 17:30N 38°43' W 009°52'2911.7
2019-Nov-05 14:59N 38°15' W 009°43'2211.2
2019-Nov-05 13:00N 37°53' W 009°37'1711.5
2019-Nov-05 11:30N 37°36' W 009°32'3812.0
2019-Nov-05 08:21N 36°60' W 009°20'2811.9
2019-Nov-05 06:01N 36°41' W 008°54'197 5.3
2019-Nov-03 16:59N 36°08' W 004°52'10614.9
2019-Nov-03 09:55N 36°24' W 002°43'3013.3
2019-Nov-03 07:38N 36°28' W 002°06'1814.3
2019-Nov-03 06:22N 36°40' W 001°48'7615.5
2019-Nov-03 01:27N 37°31' W 000°38'11314.0
2019-Nov-02 17:23N 39°22' W 000°09'9 1.3
2019-Nov-02 10:00N 39°27' W 000°20'0 0.0
2019-Nov-02 09:00N 39°27' W 000°20'0 0.0
2019-Nov-02 08:30N 39°27' W 000°20'0 0.0
2019-Nov-02 07:30N 39°27' W 000°20'4 2.4
2019-Nov-02 06:00N 39°25' W 000°16'  
Track history (hours):
 
Tides and Currents Weather Stations Pressure Air Temp Water Temp Dewpoint Dewpoint Depression Visibility Wind Speed Wind Dir Waves Ship Positions

Norwegian Crown

Operator: Norwegian Cruise Line

Last reported at 2019-Nov-11 21:28 UTC. Time now 2019-Nov-11 22:40 UTC.
Position N 51°20' E 003°12'.

Type: Ship. MMSI: 308785000.

Date/timePositionNaut miles runAvg speedWind from/ knotsBaromVisibWave heightAir tempDewpointWater temp
2019-Nov-11 21:28N 51°20' E 003°12'0 0.0
2019-Nov-11 20:58N 51°20' E 003°12'0 0.0
2019-Nov-11 18:28N 51°20' E 003°12'0 0.0
2019-Nov-11 17:28N 51°20' E 003°12'0 0.0
2019-Nov-11 16:58N 51°20' E 003°12'0 0.0
2019-Nov-11 16:28N 51°20' E 003°12'0 0.0
2019-Nov-11 14:58N 51°20' E 003°12'0 0.0
2019-Nov-11 12:57N 51°20' E 003°12'0 0.0
2019-Nov-11 11:59N 51°20' E 003°12'0 0.0
2019-Nov-11 10:29N 51°20' E 003°12'0 0.0
2019-Nov-11 08:59N 51°20' E 003°12'0 0.0
2019-Nov-11 05:59N 51°20' E 003°12'0 0.0
2019-Nov-11 05:26N 51°20' E 003°12'4 2.1
2019-Nov-11 03:30N 51°24' E 003°13'1514.8
2019-Nov-11 02:30N 51°26' E 003°37'4 7.4
2019-Nov-11 02:00N 51°25' E 003°42'9 9.1
2019-Nov-11 01:01N 51°23' E 003°57'4 7.7
2019-Nov-11 00:30N 51°24' E 004°02'8 8.2
2019-Nov-10 23:30N 51°21' E 004°14'7 7.3
2019-Nov-10 22:30N 51°15' E 004°20'3 1.8
2019-Nov-10 20:56N 51°13' E 004°24'0 0.0
2019-Nov-10 18:26N 51°13' E 004°24'0 0.0
2019-Nov-10 15:56N 51°13' E 004°24'0 0.0
2019-Nov-10 08:56N 51°13' E 004°24'0 0.0
2019-Nov-10 05:56N 51°13' E 004°24'0 0.0
2019-Nov-10 03:56N 51°13' E 004°24'0 0.0
2019-Nov-10 00:56N 51°13' E 004°24'0 0.0
2019-Nov-09 23:26N 51°13' E 004°24'0 0.0
2019-Nov-09 22:56N 51°13' E 004°24'0 0.0
2019-Nov-09 16:26N 51°13' E 004°24'0 0.0
2019-Nov-09 15:26N 51°13' E 004°24'27 5.5
2019-Nov-09 10:30N 51°23' E 003°43'5 9.7
2019-Nov-09 10:00N 51°26' E 003°36'5913.1
2019-Nov-09 05:31N 51°13' E 002°04'2713.7
2019-Nov-09 03:31N 50°56' E 001°30'714.1
2019-Nov-09 03:00N 50°50' E 001°25'7014.1
2019-Nov-08 22:00N 50°15' W 000°11'1613.4
2019-Nov-08 20:51N 50°23' W 000°32'1016.1
2019-Nov-08 20:15N 50°31' W 000°41'3412.4
2019-Nov-08 17:30N 50°52' W 001°23'1 1.0
2019-Nov-08 16:28N 50°53' W 001°24'0 0.0
2019-Nov-08 10:58N 50°53' W 001°24'0 0.0
2019-Nov-08 09:25N 50°53' W 001°24'0 0.0
2019-Nov-08 08:58N 50°53' W 001°24'0 0.0
2019-Nov-08 08:22N 50°53' W 001°24'0 0.0
2019-Nov-08 06:55N 50°53' W 001°24'50 6.7
2019-Nov-07 23:30N 50°04' W 001°39'713.7
2019-Nov-07 23:00N 50°02' W 001°49'2013.7
2019-Nov-07 21:31N 49°57' W 002°20'12016.2
2019-Nov-07 14:09N 49°00' W 005°02'64014.7
2019-Nov-05 18:30N 38°55' W 009°52'612.3
2019-Nov-05 18:00N 38°49' W 009°52'612.0
2019-Nov-05 17:30N 38°43' W 009°52'2911.7
2019-Nov-05 14:59N 38°15' W 009°43'2211.2
2019-Nov-05 13:00N 37°53' W 009°37'1711.5
2019-Nov-05 11:30N 37°36' W 009°32'3812.0
2019-Nov-05 08:21N 36°60' W 009°20'2811.9
2019-Nov-05 06:01N 36°41' W 008°54'197 5.3
2019-Nov-03 16:59N 36°08' W 004°52'10614.9
2019-Nov-03 09:55N 36°24' W 002°43'3013.3
2019-Nov-03 07:38N 36°28' W 002°06'1814.3
2019-Nov-03 06:22N 36°40' W 001°48'7615.5
2019-Nov-03 01:27N 37°31' W 000°38'11314.0
2019-Nov-02 17:23N 39°22' W 000°09'9 1.3
2019-Nov-02 10:00N 39°27' W 000°20'0 0.0
2019-Nov-02 09:00N 39°27' W 000°20'0 0.0
2019-Nov-02 08:30N 39°27' W 000°20'0 0.0
2019-Nov-02 07:30N 39°27' W 000°20'4 2.4
2019-Nov-02 06:00N 39°25' W 000°16'  

Dump ship's entire track history